Location: Jastrz?bniki
(50.3667°N, 20.3833°E)
Time: 10:31:48
(UTC+00:00)

Meteor 1-24 Rocket - Pass Details

Date: 05 August 2024
Orbit: 790 x 925 km, 81.3° (Epoch: 09 September)

Event Time Altitude Azimuth Distance (km) Brightness Sun altitude
Rises 02:10:33 0° 348° (NNW) 3,454 7.3 -9.0°
Reaches altitude 10° 02:12:58 10° 349° (N) 2,532 6.6 -8.7°
Maximum altitude 02:18:46 81° 77° (ENE) 913 4.0 -8.0°
Drops below altitude 10° 02:24:42 10° 165° (SSE) 2,594 6.0 -7.3°
Sets 02:27:12 0° 167° (SSE) 3,544 6.7 -6.9°
